[[{"header":{"parameterUnit":"m.s-1","parameterCategory":1,"la1":30.2991,"la2":30.254,"lo1":-89.0895,"lo2":-89.0444,"dx":0.0017,"dy":0.0017,"nx":28,"ny":28,"refTime":"2023-01-12T15:00:00:Z","depth":0,"parameterNumber":2,"parameterNumberName":"U-component_of_WINDS"},"data":[0,0,0,0,0,0,0,0,0,0,0,0,0,0,0,0,0,0,0,0,0,0,0,0,0,0,0,0,0,0,0,0,0,0,0,0,0,0,0,0,0,0,0,0,0,0,0,0,0,0,0,0,0,0,0,0,0,0,3.2307,3.2307,0,3.2339,3.2339,3.234,3.2289,3.2287,3.2286,3.2284,3.2316,3.2319,3.2321,0,0,0,0,0,0,0,0,0,0,0,0,0,3.2202,3.2204,3.2307,3.2307,3.2308,3.2339,3.2339,3.234,3.2289,3.2287,3.2285,3.2283,3.2316,3.2319,3.2322,0,0,0,0,0,0,0,0,0,0,0,0,0,3.2242,3.2205,3.2307,3.2286,3.2285,3.2339,3.2339,3.234,3.229,3.2287,3.2285,3.2282,3.2315,3.2318,3.2322,3.2398,0,0,3.2333,3.2335,0,0,0,0,0,0,0,0,3.224,3.2246,3.2289,3.2288,3.2286,3.2307,3.2314,3.2359,3.2291,3.2288,3.2284,3.2281,3.2316,3.2319,3.2331,3.2399,3.2401,3.2334,3.2336,3.2338,3.2339,0,0,0,0,0,0,0,3.2237,3.2244,3.2319,3.2289,3.2288,3.2276,3.2278,3.2323,3.2316,3.2288,3.2284,3.2289,3.2314,3.2327,3.2331,3.2401,3.2334,3.2337,3.2339,3.2341,3.2535,3.2537,0,0,0,0,0,0,3.2237,3.2242,3.2318,3.232,3.2256,3.228,3.2283,3.2303,3.2315,3.2315,3.2291,3.2286,3.2322,3.2327,3.2332,3.2422,3.2338,3.2341,3.2343,3.2532,3.2535,3.2538,0,0,0,0,0,0,3.2235,3.2244,3.2317,3.228,3.2289,3.2284,3.2308,3.2305,3.2318,3.2318,3.2316,3.2306,3.232,3.2327,3.2382,3.2423,3.2343,3.2346,3.2528,3.2533,3.2537,3.2603,0,0,0,0,0,0,3.2232,3.2244,3.2272,3.2281,3.2291,3.2367,3.231,3.2308,3.2325,3.2319,3.2331,3.233,3.2319,3.2377,3.2386,3.2426,3.2349,3.2525,3.253,3.2536,3.2597,3.2609,3.2619,0,0,0,0,0,3.2228,3.2289,3.2274,3.2283,3.2326,3.2369,3.2374,3.236,3.2328,3.2357,3.2357,3.233,3.2417,3.2383,3.2393,3.2435,3.2522,3.2529,3.2535,3.2592,3.2607,3.2619,0,0,0,0,0,0,3.2283,3.229,3.2273,3.2338,3.2354,3.236,3.2396,3.2375,3.24,3.2393,3.2374,3.2377,3.2437,3.2441,3.2403,3.251,3.2464,3.2473,3.2504,3.2518,3.2529,3.2526,3.2352,0,0,0,0,0,3.2303,3.2337,3.2341,3.2398,3.2407,3.24,3.2418,3.2406,3.2421,3.2427,3.2431,3.2447,3.2477,3.2498,3.2526,3.2598,3.26,3.2632,3.2643,3.2652,3.266,3.2699,3.2713,3.256,3.256,3.256,0,0,3.2344,3.2352,3.2374,3.241,3.242,3.2456,3.2406,3.2446,3.2472,3.2433,3.2486,3.249,3.2506,3.257,3.2598,3.2575,3.2703,3.266,3.2668,3.267,3.2707,3.2722,3.2735,3.2564,3.2564,3.2563,0,0,3.2438,3.2447,3.2496,3.2508,3.2525,3.252,3.2533,3.2543,3.2544,3.2597,3.2568,3.26,3.2653,3.2666,3.268,3.2781,3.2757,3.2791,3.2848,3.2887,3.2899,3.291,3.2946,3.2959,3.2799,3.2799,3.2799,0,3.2486,3.2539,3.2524,3.2566,3.2583,3.255,3.26,3.2612,3.2638,3.265,3.2624,3.2692,3.27,3.2768,3.2793,3.2805,3.2818,3.2789,3.2899,3.2909,3.2919,3.2953,3.2967,3.2803,3.2802,3.2802,3.2802,0,3.2599,3.2637,3.2674,3.27,3.2721,3.2768,3.2759,3.2783,3.2769,3.2768,3.2823,3.2832,3.2862,3.2878,3.2864,3.2944,3.2929,3.2902,3.2855,3.2938,3.297,3.2983,3.2809,3.2807,3.2806,3.2805,0,0,3.2726,3.2745,3.2759,3.2771,3.2788,3.2817,3.2862,3.2892,3.2913,3.2932,3.297,3.3017,3.2992,3.3008,3.2996,3.303,3.311,3.2998,3.2998,3.3019,3.3199,3.322,3.3235,3.3095,3.3098,3.31,3.3198,0,3.2819,3.2898,3.2886,3.2961,3.2996,3.2967,3.3006,3.3021,3.3022,3.3052,3.3052,3.3086,3.305,3.306,3.3092,3.3094,3.3146,3.3086,3.313,3.3132,3.3127,3.3252,3.3273,3.3365,3.321,3.3212,3.3214,0,3.2938,3.2963,3.3042,3.3055,3.3069,3.3105,3.3133,3.3162,3.3179,3.3177,3.3196,3.3179,3.3224,3.3179,3.3242,3.3202,3.3219,3.3223,3.3226,3.3229,3.3178,3.3258,3.3394,3.3408,3.3233,3.3232,3.3231,0,3.3024,3.3076,3.3131,3.3142,3.3159,3.3185,3.3193,3.3208,3.3227,3.3252,3.3264,3.3294,3.331,3.3333,3.3324,3.3292,3.339,3.3343,3.339,3.339,3.3411,3.341,3.3552,3.3423,3.3423,3.3422,3.3422,0,3.3129,3.3178,3.317,3.3203,3.3259,3.3245,3.33,3.3305,3.3319,3.3353,3.3329,3.3362,3.3349,3.3381,3.3374,3.3428,3.3436,3.3436,3.3433,3.3438,3.3438,3.3448,3.3442,3.3426,3.3425,3.3425,3.3424,0,3.3233,3.3229,3.3287,3.3298,3.3303,3.3343,3.3353,3.3385,3.3384,3.3428,3.3438,3.3437,3.3474,3.3468,3.3508,3.3504,3.3572,3.3561,3.3566,3.3563,3.3611,3.3606,3.3764,3.3784,3.3643,3.3644,3.3645,0,3.33,3.3338,3.3354,3.3376,3.3386,3.3421,3.3441,3.343,3.3452,3.3476,3.3505,3.354,3.3567,3.3627,3.363,3.3662,3.3652,3.3705,3.3656,3.366,3.3653,3.3651,3.3655,3.3715,3.3716,3.3718,3.3719,0,3.342,3.3417,3.3447,3.3477,3.3502,3.3525,3.3546,3.3565,3.3556,3.3582,3.362,3.3641,3.3683,3.3718,3.3748,3.3757,3.3737,3.3734,3.3747,3.3751,3.3753,3.3753,3.3592,3.373,3.3729,3.3728,3.3728,3.3727,3.3508,3.354,3.3557,3.3592,3.3607,3.3627,3.3658,3.3662,3.3694,3.3727,3.3719,3.3762,3.378,3.3818,3.383,3.3864,3.3844,3.3862,3.3866,3.3871,3.3877,3.3748,3.3869,3.3869,3.3868,3.3868,3.3868,0,3.3626,3.3636,3.3669,3.3699,3.3727,3.3707,3.3729,3.3753,3.3792,3.381,3.3838,3.3882,3.3916,3.3923,3.3956,3.3982,3.3974,3.3991,3.3989,3.3991,3.3892,3.3878,3.3997,3.3997,3.3997,3.3997,3.3997,3.3997,3.3691,3.3746,3.3745,3.3807,3.3817,3.3859,3.3874,3.3893,3.3908,3.3958,3.3987,3.3991,3.4005,3.4039,3.407,3.4072,3.4085,3.4106,3.4103,3.4011,3.3998,3.3986,3.3972,3.4109,3.4109,3.4199,3.42,3.4201]},{"header":{"parameterUnit":"m.s-1","parameterCategory":1,"la1":30.2991,"la2":30.254,"lo1":-89.0895,"lo2":-89.0444,"dx":0.0017,"dy":0.0017,"nx":28,"ny":28,"refTime":"2023-01-12T15:00:00:Z","depth":0,"parameterNumber":3,"parameterNumberName":"V-component_of_WINDS"},"data":[0,0,0,0,0,0,0,0,0,0,0,0,0,0,0,0,0,0,0,0,0,0,0,0,0,0,0,0,0,0,0,0,0,0,0,0,0,0,0,0,0,0,0,0,0,0,0,0,0,0,0,0,0,0,0,0,0,0,-7.088,-7.0882,0,-7.1078,-7.1081,-7.1083,-7.1038,-7.1035,-7.1031,-7.1027,-7.1229,-7.1237,-7.1246,0,0,0,0,0,0,0,0,0,0,0,0,0,-7.0459,-7.0467,-7.0879,-7.0882,-7.0884,-7.1078,-7.1081,-7.1083,-7.1039,-7.1035,-7.103,-7.1026,-7.1226,-7.1236,-7.1247,0,0,0,0,0,0,0,0,0,0,0,0,0,-7.0648,-7.047,-7.0879,-7.0886,-7.0888,-7.1077,-7.1081,-7.1084,-7.104,-7.1034,-7.1029,-7.1024,-7.1222,-7.1235,-7.1248,-7.1442,0,0,-7.1289,-7.1295,0,0,0,0,0,0,0,0,-7.0638,-7.0664,-7.0882,-7.0886,-7.0889,-7.1028,-7.1006,-7.1204,-7.1041,-7.0982,-7.1027,-7.1021,-7.1166,-7.1184,-7.1233,-7.1452,-7.146,-7.129,-7.1298,-7.1304,-7.1307,0,0,0,0,0,0,0,-7.0625,-7.0655,-7.0958,-7.0885,-7.0889,-7.0878,-7.0899,-7.1044,-7.1103,-7.0987,-7.0984,-7.1009,-7.1167,-7.1221,-7.1238,-7.1463,-7.129,-7.1301,-7.131,-7.1315,-7.1852,-7.1858,0,0,0,0,0,0,-7.0609,-7.0644,-7.0952,-7.0964,-7.0747,-7.089,-7.0913,-7.0989,-7.1102,-7.1113,-7.1013,-7.1006,-7.1201,-7.1222,-7.1245,-7.148,-7.1304,-7.1316,-7.1324,-7.1846,-7.1853,-7.186,0,0,0,0,0,0,-7.06,-7.0637,-7.0944,-7.0804,-7.0842,-7.0903,-7.0989,-7.0996,-7.1049,-7.1121,-7.1131,-7.1057,-7.1197,-7.1226,-7.1394,-7.1486,-7.1322,-7.1334,-7.1838,-7.1848,-7.1857,-7.1952,0,0,0,0,0,0,-7.0588,-7.0634,-7.0709,-7.0806,-7.0849,-7.1091,-7.0994,-7.1004,-7.1073,-7.1065,-7.1165,-7.1177,-7.1195,-7.1374,-7.1407,-7.1502,-7.1344,-7.183,-7.1843,-7.1854,-7.1941,-7.1964,-7.1983,0,0,0,0,0,-7.0574,-7.0727,-7.0713,-7.075,-7.0944,-7.1096,-7.1121,-7.114,-7.108,-7.1156,-7.1202,-7.1173,-7.1471,-7.1392,-7.1428,-7.1528,-7.1824,-7.1839,-7.1853,-7.1931,-7.1959,-7.1982,0,0,0,0,0,0,-7.0638,-7.074,-7.0725,-7.0915,-7.0997,-7.1088,-7.1184,-7.1168,-7.1269,-7.1257,-7.1275,-7.1298,-7.147,-7.1515,-7.1426,-7.1722,-7.1639,-7.1661,-7.1686,-7.1713,-7.1734,-7.1719,-7.1355,0,0,0,0,0,-7.0675,-7.079,-7.0872,-7.1031,-7.1074,-7.1122,-7.1189,-7.1196,-7.1282,-7.1316,-7.1375,-7.1459,-7.1571,-7.1644,-7.1752,-7.1947,-7.1968,-7.2034,-7.2055,-7.2072,-7.2091,-7.2198,-7.2228,-7.1907,-7.1907,-7.1906,0,0,-7.0751,-7.0821,-7.0892,-7.1046,-7.1111,-7.123,-7.1152,-7.128,-7.1368,-7.1335,-7.1498,-7.1544,-7.1639,-7.1822,-7.1905,-7.1865,-7.2184,-7.209,-7.2103,-7.2113,-7.2216,-7.2246,-7.2273,-7.1916,-7.1915,-7.1913,0,0,-7.0951,-7.1015,-7.1155,-7.1222,-7.1322,-7.1353,-7.1387,-7.1481,-7.1511,-7.1674,-7.1652,-7.1757,-7.195,-7.2019,-7.2079,-7.2306,-7.2283,-7.234,-7.245,-7.2554,-7.258,-7.2602,-7.2684,-7.2713,-7.2359,-7.2359,-7.2359,0,-7.1033,-7.1212,-7.1229,-7.1361,-7.1429,-7.1406,-7.1548,-7.1612,-7.1741,-7.1788,-7.1742,-7.1985,-7.2047,-7.2246,-7.2301,-7.235,-7.2389,-7.2329,-7.2575,-7.2598,-7.2619,-7.2697,-7.2727,-7.2365,-7.2364,-7.2364,-7.2363,0,-7.1308,-7.1432,-7.1533,-7.166,-7.174,-7.1876,-7.1914,-7.1992,-7.1993,-7.2029,-7.2196,-7.227,-7.2392,-7.2439,-7.2441,-7.2639,-7.2611,-7.257,-7.2487,-7.2656,-7.2729,-7.2759,-7.2374,-7.2372,-7.237,-7.2368,0,0,-7.1554,-7.169,-7.1726,-7.1784,-7.1892,-7.1988,-7.2123,-7.2244,-7.2311,-7.2401,-7.2514,-7.2679,-7.2642,-7.271,-7.2719,-7.281,-7.2986,-7.2758,-7.276,-7.2798,-7.321,-7.3241,-7.3275,-7.2972,-7.2978,-7.2982,-7.3202,0,-7.1764,-7.2003,-7.2023,-7.2238,-7.2353,-7.2333,-7.245,-7.2529,-7.2567,-7.2669,-7.271,-7.2827,-7.2768,-7.2809,-7.2899,-7.2946,-7.3069,-7.293,-7.3077,-7.3082,-7.3055,-7.3313,-7.3346,-7.355,-7.3231,-7.3236,-7.3239,0,-7.2041,-7.2141,-7.2367,-7.246,-7.2509,-7.2615,-7.2727,-7.2826,-7.2915,-7.2935,-7.3013,-7.3009,-7.3147,-7.3059,-7.325,-7.3155,-7.3216,-7.3248,-7.3257,-7.3271,-7.3171,-7.3335,-7.3616,-7.3647,-7.3285,-7.3281,-7.3278,0,-7.2199,-7.2389,-7.255,-7.2599,-7.2712,-7.2786,-7.2836,-7.292,-7.2992,-7.309,-7.3136,-7.3249,-7.331,-7.3397,-7.3424,-7.3357,-7.3615,-7.3528,-7.3635,-7.3635,-7.3691,-7.3687,-7.3985,-7.373,-7.3729,-7.3729,-7.3728,0,-7.2432,-7.2571,-7.2622,-7.2721,-7.2876,-7.2898,-7.3051,-7.3097,-7.3172,-7.3279,-7.3268,-7.3368,-7.3397,-7.3503,-7.3525,-7.368,-7.3708,-7.3728,-7.3732,-7.373,-7.3727,-7.377,-7.3757,-7.3737,-7.3735,-7.3733,-7.3732,0,-7.2634,-7.2674,-7.2847,-7.294,-7.2966,-7.3077,-7.3156,-7.3251,-7.3286,-7.3422,-7.3455,-7.3511,-7.3635,-7.367,-7.3819,-7.3833,-7.4016,-7.4007,-7.3986,-7.3986,-7.4092,-7.4082,-7.4429,-7.4476,-7.4189,-7.4192,-7.4194,0,-7.278,-7.2887,-7.2992,-7.3063,-7.3117,-7.3232,-7.3305,-7.333,-7.3407,-7.3517,-7.3598,-7.3721,-7.382,-7.4019,-7.4072,-7.4186,-7.418,-7.4294,-7.4197,-7.4191,-7.4182,-7.4176,-7.4187,-7.4312,-7.4315,-7.4317,-7.4319,0,-7.3036,-7.3051,-7.3157,-7.3271,-7.3359,-7.3449,-7.3536,-7.3595,-7.3633,-7.3719,-7.3846,-7.3924,-7.4076,-7.4198,-7.4313,-7.4363,-7.4349,-7.435,-7.4381,-7.4379,-7.4363,-7.4374,-7.4037,-7.4342,-7.4339,-7.4338,-7.4337,-7.4336,-7.3215,-7.331,-7.3398,-7.3517,-7.3586,-7.3667,-7.3762,-7.3809,-7.3916,-7.4043,-7.4051,-7.4189,-7.4275,-7.4429,-7.4486,-7.4594,-7.456,-7.4605,-7.4616,-7.4627,-7.4636,-7.4346,-7.4614,-7.4614,-7.4613,-7.4613,-7.4612,0,-7.3471,-7.3527,-7.3636,-7.3759,-7.3853,-7.3831,-7.3926,-7.4006,-7.4128,-7.421,-7.4309,-7.4455,-7.4573,-7.4636,-7.4754,-7.4828,-7.4824,-7.4858,-7.4853,-7.4865,-7.4659,-7.4621,-7.486,-7.486,-7.486,-7.4859,-7.4859,-7.4859,-7.3615,-7.3774,-7.3799,-7.3992,-7.4046,-7.4182,-7.4239,-7.4314,-7.438,-7.4544,-7.4643,-7.4684,-7.4759,-7.4882,-7.4989,-7.5005,-7.5049,-7.5087,-7.5099,-7.4905,-7.488,-7.4856,-7.482,-7.5096,-7.5097,-7.5296,-7.5298,-7.5299]}]]